Hourly Data Report for October 02, 2012

All times are specified in Local Standard Time (LST). Add 1 hour to adjust for Daylight Saving Time where and when it is observed.

ST LEONARD CS
NEW BRUNSWICK

47°09'28.050" N
67°49'55.014" W
245.00 m
810I001
71019
WIY

Download Data

Hourly Data (October 2012)
Hourly Data Report for October 2, 2012
Temp Definition
°C
Dew Point Temp Definition
°C
Rel Hum Definition
%
Wind Dir Definition
10's deg

Wind Spd Definition
km/h
Visibility Definition
km
Stn Press Definition
kPa
Hmdx Definition


Wind Chill Definition


Weather Definition


TIME
00:00 8.8 8.0 95 25 6   97.67     LegendNANA
01:00 9.1 8.4 95 17 4   97.71     LegendNANA
02:00 8.9 8.4 97 16 7   97.73     LegendNANA
03:00 9.7 9.1 96 21 6   97.76     LegendNANA
04:00 10.2 9.3 94 24 6   97.84     LegendNANA
05:00 9.7 9.1 96 27 4   97.83     LegendNANA
06:00 9.8 8.8 93 24 2   97.90     LegendNANA
07:00 8.7 8.2 97   0   97.99     LegendNANA
08:00 12.1 9.8 86   0   98.10     LegendNANA
09:00 13.6 10.4 81 27 6   98.19     LegendNANA
10:00 15.4 9.7 69 28 13   98.23     LegendNANA
11:00 17.0 9.0 59 29 17   98.23     LegendNANA
12:00 18.9 8.4 50 29 13   98.26     LegendNANA
13:00 19.8 7.7 46 29 13   98.27     LegendNANA
14:00 20.8 7.1 41 28 11   98.28     LegendNANA
15:00 21.4 7.1 40 27 13   98.25     LegendNANA
16:00 21.5 6.3 37 29 15   98.28     LegendNANA
17:00 21.2 7.4 41 27 9   98.32     LegendNANA
18:00 18.4 9.8 57 28 4   98.38     LegendNANA
19:00 14.1 9.6 74 28 4   98.43     LegendNANA
20:00 12.4 9.3 81 31 4   98.47     LegendNANA
21:00 14.3 9.2 71 29 6   98.53     LegendNANA
22:00 13.6 9.1 74 29 4   98.58     LegendNANA
23:00 10.0 8.3 89 29 2   98.62     LegendNANA

Notes on Data Quality.

Legend

  • E = Estimated
  • M = Missing
  • NA = Not Available
  • ‡ = Partner data that is not subject to review by the National Climate Archives
Date modified: